彩虹 19星 (RADUGA 19)

导读 | 豆包AI

RADUGA 19(“虹”19)是独联体(CIS)继承自苏联的“虹”系列地球同步轨道通信卫星,于1986年10月25日发射升空。作为苏联第一代“虹”通信卫星成员,它基于KAUR-3平台研制,主要承担东半球范围内军事通信、民用电视与电报电话传输业务,是苏联早期固定通信卫星体系的重要组成,为区域通信保障提供了空间支撑。

基本信息
目录编号:
17046
目录名称:
RADUGA 19
国际标识:
1986-082A
轨道中心:
EARTH
卫星名称:
彩虹 19星
卫星全名:
彩虹 19星 (RADUGA 19)
卫星状态:
在轨 (已飞行14406 天)
发射日期:
1986-10-25 UTC
国别 :
俄罗斯(独联体) (CIS)
星等 :
--
轨道信息
数据来源 国际轨道数据 AOE轨道数据
星历时间 2026-04-04T01:18:55+0800
7小时前
查看轨道信息
2026-03-31T12:00:00+0800
3天前
查看轨道信息
半长轴 42680.443km 42680.53km
偏心率 0.0009169 0.0009387
轨道倾角 11.267° 11.272°
近地点辐角 193.393° 195.392°
升交点赤经 325.851° 325.874°
平近点角 156.259° 334.206°
近地点 36263.172km 36262.328km
远地点 36341.44km 36342.458km
周期 1462.524分钟 1462.529分钟
每日圈数 0.984599 0.984596
详细信息
平衡模式:
三轴稳定
覆盖范围:
全球
运营商:
俄罗斯国家航天集团
运营商所在国:
俄罗斯
制造商(研发单位):
普里克拉德诺伊·梅哈尼基设计局
制造商所在国:
俄罗斯联邦
使用方式:
暂无
卫星简介
彩虹卫星(Raduga, Gran)是苏联用于军事和通信目的的一系列地球静止通信卫星。彩虹卫星旨在支持军事通信、Orbita地面电视网络,并在整个东半球(极地地区除外)提供电话和电报通信。该卫星已退役。
2D轨道图
3D轨道图
轨道高度分析图
轨道倾角分析图
轨道综合分析图
查看轨道综合分析图